[[{"header":{"parameterUnit":"m.s-1","parameterCategory":1,"la1":30.2991,"la2":30.254,"lo1":-89.0895,"lo2":-89.0444,"dy":0.0017,"dx":0.0017,"nx":28,"ny":28,"refTime":"2025-04-01T21:00:00:Z","depth":0,"parameterNumber":2,"parameterNumberName":"U-component_of_WINDS"},"data":[0,0,0,0,0,0,0,0,0,0,0,0,0,0,0,0,0,0,0,0,0,0,0,0,0,0,0,0,0,0,0,0,0,0,0,0,0,0,0,0,0,0,0,0,0,0,0,0,0,0,0,0,0,0,0,0,0,0,-3.7244,-3.7245,0,-3.7359,-3.7361,-3.7362,-3.7383,-3.7382,-3.7381,-3.738,-3.7498,-3.7502,-3.7506,0,0,0,0,0,0,0,0,0,0,0,0,0,-3.7042,-3.7046,-3.7244,-3.7245,-3.7247,-3.7359,-3.7361,-3.7362,-3.7383,-3.7382,-3.738,-3.7379,-3.7497,-3.7502,-3.7507,0,0,0,0,0,0,0,0,0,0,0,0,0,-3.7141,-3.7047,-3.7244,-3.727,-3.7274,-3.7359,-3.7361,-3.7363,-3.7383,-3.7382,-3.738,-3.7379,-3.7495,-3.7501,-3.7507,-3.7574,0,0,-3.7526,-3.7529,0,0,0,0,0,0,0,0,-3.7135,-3.7148,-3.7265,-3.7269,-3.7273,-3.7355,-3.7333,-3.7433,-3.7383,-3.7342,-3.738,-3.7378,-3.7452,-3.7461,-3.7486,-3.7579,-3.7584,-3.7526,-3.753,-3.7533,-3.7534,0,0,0,0,0,0,0,-3.7128,-3.7143,-3.729,-3.7267,-3.7272,-3.7277,-3.7289,-3.7352,-3.7403,-3.7345,-3.7347,-3.736,-3.7454,-3.748,-3.7489,-3.7586,-3.7526,-3.7532,-3.7535,-3.7538,-3.7739,-3.7741,0,0,0,0,0,0,-3.7116,-3.7137,-3.7286,-3.7293,-3.7199,-3.7282,-3.7296,-3.733,-3.7403,-3.7412,-3.7361,-3.7361,-3.7471,-3.7482,-3.7493,-3.7575,-3.7533,-3.7538,-3.7542,-3.7738,-3.774,-3.7742,0,0,0,0,0,0,-3.7112,-3.7129,-3.7281,-3.7216,-3.7236,-3.7287,-3.7325,-3.7333,-3.736,-3.7415,-3.7424,-3.7379,-3.747,-3.7485,-3.7554,-3.758,-3.7541,-3.7547,-3.7736,-3.7738,-3.7741,-3.774,0,0,0,0,0,0,-3.7106,-3.7128,-3.7153,-3.7216,-3.7239,-3.7339,-3.7327,-3.7336,-3.737,-3.737,-3.7434,-3.7443,-3.747,-3.7544,-3.756,-3.7588,-3.7551,-3.7733,-3.7737,-3.774,-3.7738,-3.7742,-3.7746,0,0,0,0,0,-3.7099,-3.7148,-3.7154,-3.7172,-3.7272,-3.734,-3.7353,-3.7383,-3.7372,-3.7398,-3.7434,-3.7441,-3.7575,-3.7551,-3.7569,-3.7599,-3.7732,-3.7736,-3.774,-3.7736,-3.7741,-3.7746,0,0,0,0,0,0,-3.7087,-3.7157,-3.7164,-3.7236,-3.7282,-3.7344,-3.7377,-3.7388,-3.7438,-3.7436,-3.7471,-3.7486,-3.7552,-3.7583,-3.7555,-3.7667,-3.7653,-3.766,-3.7644,-3.765,-3.7654,-3.7644,-3.7556,0,0,0,0,0,-3.7093,-3.7143,-3.7201,-3.7259,-3.7282,-3.7326,-3.7357,-3.7376,-3.7425,-3.7445,-3.7485,-3.7533,-3.7586,-3.762,-3.7671,-3.7743,-3.7757,-3.7773,-3.7777,-3.778,-3.7785,-3.7825,-3.7833,-3.7754,-3.7754,-3.7754,0,0,-3.7105,-3.715,-3.7179,-3.7258,-3.7296,-3.7346,-3.7342,-3.7396,-3.7434,-3.7453,-3.752,-3.7552,-3.7607,-3.7678,-3.7711,-3.7705,-3.781,-3.7784,-3.7786,-3.7791,-3.783,-3.7837,-3.7844,-3.7757,-3.7756,-3.7756,0,0,-3.7153,-3.7192,-3.7244,-3.7282,-3.734,-3.7369,-3.7382,-3.7442,-3.7464,-3.7532,-3.7547,-3.7593,-3.7684,-3.7722,-3.7754,-3.7818,-3.7827,-3.7834,-3.7855,-3.7893,-3.7899,-3.7905,-3.7927,-3.7935,-3.784,-3.784,-3.784,0,-3.7161,-3.7238,-3.727,-3.7323,-3.7357,-3.7377,-3.743,-3.7466,-3.7537,-3.756,-3.7553,-3.7667,-3.7706,-3.7786,-3.7801,-3.7827,-3.7842,-3.7826,-3.7896,-3.7902,-3.7908,-3.7929,-3.7937,-3.784,-3.784,-3.784,-3.784,0,-3.7245,-3.7298,-3.7333,-3.7402,-3.744,-3.7493,-3.7532,-3.7568,-3.7584,-3.7614,-3.7683,-3.773,-3.7792,-3.7813,-3.7829,-3.7895,-3.7889,-3.7889,-3.7875,-3.7915,-3.7936,-3.7944,-3.7841,-3.7841,-3.7841,-3.7841,0,0,-3.7288,-3.7373,-3.7385,-3.7417,-3.7482,-3.7524,-3.7578,-3.7638,-3.7668,-3.7717,-3.7763,-3.7839,-3.7839,-3.7875,-3.7896,-3.793,-3.7977,-3.7926,-3.7928,-3.7933,-3.8052,-3.8051,-3.806,-3.7984,-3.7986,-3.7987,-3.8047,0,-3.7343,-3.7439,-3.7469,-3.755,-3.76,-3.762,-3.7667,-3.7712,-3.7742,-3.7789,-3.7822,-3.7875,-3.7871,-3.7893,-3.7928,-3.7964,-3.8002,-3.7961,-3.8027,-3.8029,-3.8011,-3.8071,-3.8071,-3.8125,-3.8056,-3.8057,-3.8058,0,-3.742,-3.747,-3.7555,-3.7614,-3.7636,-3.7678,-3.7736,-3.778,-3.7833,-3.7852,-3.7892,-3.7911,-3.7968,-3.7953,-3.8032,-3.8004,-3.8033,-3.8055,-3.8058,-3.8064,-3.8045,-3.8078,-3.8143,-3.8151,-3.8072,-3.807,-3.807,0,-3.7441,-3.753,-3.7593,-3.7619,-3.769,-3.7719,-3.775,-3.7801,-3.7835,-3.7886,-3.7908,-3.7965,-3.7996,-3.804,-3.8074,-3.8059,-3.815,-3.8137,-3.8168,-3.8167,-3.8185,-3.8183,-3.8254,-3.8206,-3.8206,-3.8205,-3.8205,0,-3.7499,-3.755,-3.7603,-3.7642,-3.77,-3.7734,-3.7791,-3.7824,-3.7869,-3.7914,-3.7935,-3.7977,-3.802,-3.8068,-3.8094,-3.8156,-3.817,-3.8187,-3.8194,-3.8185,-3.8182,-3.8203,-3.82,-3.8208,-3.8207,-3.8207,-3.8206,0,-3.7532,-3.757,-3.7639,-3.7701,-3.7717,-3.7758,-3.7811,-3.7849,-3.788,-3.7937,-3.7952,-3.8001,-3.8058,-3.8096,-3.817,-3.8188,-3.8255,-3.8261,-3.8237,-3.824,-3.8268,-3.8264,-3.8354,-3.8367,-3.831,-3.8311,-3.8311,0,-3.7566,-3.7606,-3.7671,-3.7703,-3.7734,-3.7785,-3.782,-3.7856,-3.7892,-3.7955,-3.7985,-3.8044,-3.8093,-3.8184,-3.8226,-3.8282,-3.8289,-3.8317,-3.8298,-3.8288,-3.8289,-3.8285,-3.8289,-3.8319,-3.832,-3.832,-3.832,0,-3.7621,-3.7638,-3.7688,-3.7744,-3.7785,-3.7831,-3.7877,-3.7902,-3.7946,-3.7986,-3.8044,-3.8082,-3.8157,-3.8215,-3.8276,-3.8308,-3.8322,-3.8326,-3.8336,-3.8327,-3.8311,-3.8319,-3.8244,-3.8324,-3.8323,-3.8323,-3.8323,-3.8323,-3.7656,-3.7692,-3.7744,-3.7798,-3.7837,-3.7879,-3.7918,-3.7954,-3.8004,-3.8067,-3.8086,-3.8147,-3.8199,-3.8281,-3.8315,-3.8364,-3.8361,-3.8375,-3.8379,-3.8381,-3.8381,-3.8304,-3.8375,-3.8375,-3.8375,-3.8375,-3.8375,0,-3.7712,-3.7746,-3.7796,-3.786,-3.7902,-3.7912,-3.7964,-3.7999,-3.8052,-3.8099,-3.8147,-3.8214,-3.8271,-3.8318,-3.8377,-3.8406,-3.8414,-3.842,-3.8418,-3.8425,-3.8381,-3.8366,-3.8413,-3.8413,-3.8413,-3.8413,-3.8413,-3.8413,-3.7746,-3.7807,-3.783,-3.7911,-3.7946,-3.8005,-3.8034,-3.8074,-3.8111,-3.8186,-3.8233,-3.8263,-3.831,-3.8372,-3.8425,-3.8437,-3.8457,-3.8462,-3.8476,-3.8433,-3.8428,-3.8424,-3.841,-3.8466,-3.8467,-3.8516,-3.8517,-3.8517]},{"header":{"parameterUnit":"m.s-1","parameterCategory":1,"la1":30.2991,"la2":30.254,"lo1":-89.0895,"lo2":-89.0444,"dy":0.0017,"dx":0.0017,"nx":28,"ny":28,"refTime":"2025-04-01T21:00:00:Z","depth":0,"parameterNumber":3,"parameterNumberName":"V-component_of_WINDS"},"data":[0,0,0,0,0,0,0,0,0,0,0,0,0,0,0,0,0,0,0,0,0,0,0,0,0,0,0,0,0,0,0,0,0,0,0,0,0,0,0,0,0,0,0,0,0,0,0,0,0,0,0,0,0,0,0,0,0,0,6.0763,6.0764,0,6.09,6.0902,6.0903,6.0898,6.0896,6.0894,6.0892,6.1033,6.1039,6.1044,0,0,0,0,0,0,0,0,0,0,0,0,0,6.0498,6.0503,6.0763,6.0764,6.0766,6.09,6.0902,6.0904,6.0898,6.0895,6.0893,6.0891,6.1031,6.1038,6.1045,0,0,0,0,0,0,0,0,0,0,0,0,0,6.0622,6.0504,6.0762,6.0779,6.0782,6.09,6.0902,6.0904,6.0898,6.0895,6.0893,6.089,6.1029,6.1037,6.1045,6.1155,0,0,6.1071,6.1075,0,0,0,0,0,0,0,0,6.0615,6.0632,6.0775,6.0778,6.0782,6.0879,6.086,6.0988,6.0899,6.0854,6.0892,6.0888,6.0984,6.0996,6.1028,6.1162,6.1168,6.1072,6.1077,6.108,6.1083,0,0,0,0,0,0,0,6.0606,6.0626,6.0817,6.0777,6.0781,6.0781,6.0795,6.0885,6.0934,6.0858,6.0858,6.0874,6.0985,6.102,6.1031,6.117,6.1072,6.1079,6.1084,6.1087,6.1404,6.1408,0,0,0,0,0,0,6.0594,6.0618,6.0813,6.0821,6.0689,6.0788,6.0804,6.0851,6.0933,6.0943,6.0877,6.0873,6.1007,6.1022,6.1036,6.1173,6.108,6.1088,6.1093,6.1401,6.1405,6.1409,0,0,0,0,0,0,6.0588,6.0611,6.0807,6.072,6.0745,6.0796,6.0848,6.0855,6.089,6.0947,6.0956,6.0903,6.1006,6.1025,6.1127,6.1178,6.1092,6.11,6.1397,6.1402,6.1407,6.1445,0,0,0,0,0,0,6.058,6.0609,6.065,6.0721,6.075,6.0894,6.0851,6.086,6.0904,6.0901,6.0974,6.0983,6.1005,6.1114,6.1135,6.1188,6.1106,6.1393,6.1399,6.1405,6.144,6.1451,6.1461,0,0,0,0,0,6.0571,6.0655,6.0653,6.0676,6.0802,6.0897,6.0914,6.0937,6.0908,6.0951,6.0988,6.0981,6.1169,6.1125,6.1148,6.1204,6.139,6.1398,6.1405,6.1435,6.1449,6.146,0,0,0,0,0,0,6.0589,6.0664,6.0663,6.0772,6.0828,6.0896,6.095,6.095,6.1016,6.101,6.1036,6.1053,6.1156,6.119,6.1139,6.1316,6.1276,6.1288,6.129,6.1304,6.1314,6.1304,6.1113,0,0,0,0,0,6.0605,6.0675,6.0738,6.0828,6.0857,6.0899,6.0941,6.0954,6.1014,6.1038,6.1082,6.1141,6.1213,6.126,6.133,6.1444,6.1462,6.1495,6.1505,6.1513,6.1524,6.1591,6.1607,6.1434,6.1434,6.1434,0,0,6.064,6.069,6.0733,6.0833,6.0879,6.0952,6.0919,6.0997,6.1052,6.1049,6.1149,6.1184,6.1251,6.1361,6.1411,6.1392,6.1576,6.1523,6.1529,6.1536,6.16,6.1617,6.1631,6.1439,6.1438,6.1438,0,0,6.0742,6.0786,6.0867,6.0914,6.0983,6.1011,6.1031,6.11,6.1123,6.1224,6.1224,6.129,6.1414,6.1463,6.1504,6.1627,6.1624,6.1649,6.1704,6.1769,6.1782,6.1795,6.1841,6.1857,6.166,6.166,6.166,0,6.0777,6.0887,6.0909,6.0989,6.1035,6.1036,6.112,6.1164,6.1253,6.1284,6.1262,6.1419,6.1464,6.1587,6.1617,6.165,6.1675,6.1641,6.1778,6.1791,6.1803,6.1847,6.1865,6.1662,6.1662,6.1662,6.1662,0,6.0927,6.1004,6.1062,6.1148,6.12,6.1281,6.1318,6.1367,6.1377,6.1408,6.1512,6.1566,6.1648,6.1678,6.1687,6.1803,6.179,6.1773,6.1732,6.1822,6.1864,6.1881,6.1666,6.1665,6.1665,6.1664,0,0,6.1043,6.1143,6.1164,6.1204,6.1282,6.1342,6.1425,6.1506,6.1549,6.1611,6.1682,6.1788,6.1774,6.182,6.1835,6.1892,6.199,6.1868,6.187,6.1891,6.2124,6.2137,6.2156,6.1988,6.1991,6.1994,6.2119,0,6.1154,6.13,6.1325,6.1453,6.1526,6.153,6.1602,6.1659,6.169,6.1757,6.1792,6.1868,6.1842,6.1871,6.1926,6.1966,6.2037,6.1957,6.2056,6.2059,6.204,6.2178,6.2192,6.2308,6.2135,6.2138,6.214,0,6.1303,6.137,6.1506,6.1577,6.1609,6.1673,6.1751,6.1814,6.1879,6.1898,6.1952,6.1961,6.2049,6.2005,6.2127,6.2072,6.2114,6.214,6.2145,6.2156,6.2106,6.2195,6.2345,6.2363,6.2166,6.2164,6.2162,0,6.1377,6.1501,6.1599,6.1633,6.1718,6.1764,6.1801,6.1863,6.1911,6.1979,6.2011,6.2088,6.2131,6.2191,6.2222,6.2186,6.2344,6.2301,6.2364,6.2363,6.2397,6.2395,6.2558,6.2422,6.2421,6.2421,6.2421,0,6.1499,6.1583,6.1634,6.1694,6.1789,6.1817,6.191,6.1947,6.2003,6.2072,6.2079,6.2144,6.218,6.225,6.2275,6.2374,6.2393,6.2412,6.2418,6.2413,6.2411,6.2441,6.2435,6.2426,6.2425,6.2424,6.2423,0,6.1598,6.1634,6.1742,6.1814,6.1834,6.1901,6.1964,6.2024,6.2056,6.2143,6.2165,6.2216,6.23,6.2336,6.2439,6.2456,6.257,6.2569,6.2548,6.2551,6.2612,6.2607,6.2802,6.283,6.2674,6.2675,6.2676,0,6.1674,6.1739,6.1818,6.1865,6.1905,6.198,6.2029,6.206,6.2111,6.2192,6.2243,6.2327,6.2396,6.253,6.2577,6.2656,6.2659,6.2722,6.2671,6.2664,6.2662,6.2659,6.2667,6.2731,6.2733,6.2734,6.2735,0,6.1807,6.1823,6.1894,6.1972,6.2031,6.2095,6.2156,6.2195,6.2235,6.2293,6.2379,6.2433,6.2539,6.2623,6.2706,6.2746,6.2749,6.2751,6.277,6.2766,6.2752,6.2763,6.2576,6.2746,6.2745,6.2744,6.2744,6.2743,6.1898,6.1957,6.2023,6.2103,6.2153,6.2211,6.2272,6.2313,6.2385,6.2474,6.2488,6.258,6.2647,6.2759,6.2802,6.2876,6.286,6.2887,6.2895,6.2901,6.2906,6.2739,6.2891,6.289,6.289,6.289,6.289,0,6.2034,6.2077,6.215,6.2237,6.23,6.2297,6.2366,6.2419,6.2501,6.2562,6.2631,6.2731,6.2814,6.2868,6.2952,6.3001,6.3004,6.3022,6.3019,6.3029,6.2914,6.289,6.3018,6.3018,6.3018,6.3018,6.3018,6.3018,6.2112,6.2212,6.2236,6.2362,6.2405,6.2496,6.2536,6.2591,6.2641,6.2753,6.2822,6.2856,6.2916,6.3004,6.3081,6.3095,6.3126,6.3145,6.3158,6.305,6.3037,6.3024,6.3002,6.3151,6.3151,6.3268,6.3269,6.327]}]]